Regional Weather Roundup
Issued by NWS

Home | Current Version | Previous Version | Text Only | Print | Product List | Glossary On
Versions: 1 2 3 4 5 6 7 8 9 10 11 12 13 14 15 16 17 18 19 20 21 22 23 24 25 26 27 28 29 30 31 32 33 34 35 36 37 38 39 40 41 42 43 44 45 46 47 48 49 50
000
ASUS43 KMKX 280300
RWRWI

WISCONSIN REGIONAL WEATHER ROUNDUP
NATIONAL WEATHER SERVICE MILWAUKEE/SULLIVAN WI
1000 PM CDT WED AUG 27 2014

NOTE: "FAIR" INDICATES FEW OR NO CLOUDS BELOW 12,000 FEET WITH NO
SIGNIFICANT WEATHER AND/OR OBSTRUCTIONS TO VISIBILITY.

WIZ001-002-006>008-014>016-023>028-280400-
NORTHWEST WISCONSIN

CITY           SKY/WX    TMP DP  RH WIND       PRES   REMARKS
SUPERIOR ARPT  CLEAR     56  54  92 CALM      30.13S
ASHLAND        CLEAR     56  51  84 S6        30.15F
HAYWARD        CLEAR     56  54  93 N3        30.17R
SIREN          CLEAR     56  54  93 CALM      30.15S
RICE LAKE      CLEAR     58  56  92 CALM      30.17S
LADYSMITH      CLEAR     58  56  91 CALM      30.18R
EAU CLAIRE     CLEAR     62  57  83 NE3       30.14R
MENOMONIE      CLEAR     64  57  78 CALM      30.14R
NEW RICHMOND   CLEAR     61  56  84 NE3       30.15R
OSCEOLA        CLEAR     61  58  90 CALM      30.17S
$$

WIZ003>005-009-010-017-018-280400-
NORTH CENTRAL WISCONSIN

CITY           SKY/WX    TMP DP  RH WIND       PRES   REMARKS
WOODRUFF       CLEAR     56  50  80 CALM      30.19R
RHINELANDER    CLEAR     54  48  80 CALM      30.18S
EAGLE RIVER    CLEAR     48  47  97 CALM      30.18S
LAND O LAKES   CLEAR     47  46  95 CALM      30.20S
PHILLIPS       CLEAR     55  51  86 CALM      30.17R
TOMAHAWK       CLEAR     55  52  90 CALM      30.18R
MEDFORD        CLEAR     53  51  96 CALM      30.16S
MERRILL        CLEAR     55  53  94 CALM      30.15F
$$

WIZ029-030-035-036-043>047-280400-
CENTRAL WISCONSIN

CITY           SKY/WX    TMP DP  RH WIND       PRES   REMARKS
WAUSAU         CLEAR     61  52  72 CALM      30.14R
MOSINEE        CLEAR     63  55  77 N6        30.16S
MARSHFIELD     CLEAR     59  54  83 N3        30.15R
STEVENS POINT  CLEAR     56  54  92 CALM      30.15S
WAUPACA        PTCLDY    64  62  93 CALM      30.13S
WAUTOMA        NOT AVBL
WISC RAPIDS    CLEAR     59  57  93 CALM      30.15R
CAMP DOUGLAS   NOT AVBL
$$

WIZ011>013-019>022-031-037>040-048>050-280400-
NORTHEAST WISCONSIN

CITY           SKY/WX    TMP DP  RH WIND       PRES   REMARKS
ANTIGO         CLEAR     55  53  93 CALM      30.17R
STURGEON BAY   CLEAR     59  54  82 E5        30.15S
GREEN BAY      CLEAR     60  57  89 SE5       30.15R
MANITOWOC      NOT AVBL
APPLETON       MOCLDY    64  59  82 SE7       30.15R
CLINTONVILLE   PTCLDY    61  59  94 CALM      30.13S
OSHKOSH        CLEAR     64  60  87 SE7       30.13R
$$

WIZ032>034-041-042-053>061-280400-
SOUTHWEST WISCONSIN

CITY           SKY/WX    TMP DP  RH WIND       PRES   REMARKS
LA CROSSE      CLEAR     66  61  84 SE3       30.13R
SPARTA         CLEAR     60  58  92 CALM      30.14R
VIROQUA        FAIR      61  61 100 CALM      30.15R
BOSCOBEL       CLEAR     62  60  93 CALM      30.14R
PRAIRIE DU CHI PTCLDY    65  61  87 CALM      30.13R
PLATTEVILLE    FAIR      65  62  87 NE3       30.15R
$$

WIZ056-057-062-063-064-067-068-280400-
SOUTH CENTRAL WISCONSIN

CITY           SKY/WX    TMP DP  RH WIND       PRES   REMARKS
BARABOO/DELLS  CLEAR     62  59  90 CALM      30.14R
LONE ROCK      NOT AVBL
WATERTOWN      CLEAR     63  63  99 E3        30.13R
MADISON        CLEAR     63  60  90 CALM      30.14R
MIDDLETON      FAIR      62  61  94 W3        30.14R
MONROE         PTCLDY    68  61  77 NE3       30.14R
JANESVILLE     PTCLDY    64  61  88 SE5       30.13R
$$

WIZ051-052-058>065-066-070>072-280400-
SOUTHEAST WISCONSIN

CITY           SKY/WX    TMP DP  RH WIND       PRES   REMARKS
MILWAUKEE      PTCLDY    64  55  72 E5        30.15R
WAUKESHA       PTCLDY    61  57  88 CALM      30.16R
MILWAUKEE/TIMM CLEAR     63  54  72 CALM      30.15R
RACINE         CLEAR     63  56  78 NE6       30.16R
BURLINGTON     CLEAR     62  60  94 CALM      30.14S
KENOSHA        PTCLDY    62  60  93 CALM      30.15R
FOND DU LAC    CLEAR     63  58  83 SE7       30.14R
SHEBOYGAN      PTCLDY    57  55  93 CALM      30.15R
WEST BEND      CLEAR     59  55  88 CALM      30.15S
JUNEAU         FAIR      63  61  93 E8        30.15R
$$

LSZ147-162-280400-
LAKE SUPERIOR

STATION/POSITION TIME  TEMP    WIND        PRES    WAVE
                       AIR SEA DIR/SP/G            HT/PER
                 (UTC) (F)     (DEG/KT/KT) (MB)    (FT/S)
W MID LAKE BUOY  0150   57 55  190/  2/  4 1021.3R   1
DEVILS ISLAND    0200   60     130/  7/  8 1021.0R
PORT WING        0240   59     150/  3/  5 1020.3S
SAXON HARBOR     0200   58     190/  4/  6 1021.0R
$$

LMZ867-665-643>646-280400-
LAKE MICHIGAN

STATION/POSITION TIME  TEMP    WIND        PRES    WAVE
                       AIR SEA DIR/SP/G            HT/PER
                 (UTC) (F)     (DEG/KT/KT) (MB)    (FT/S)
N MID LAKE BUOY  0150   64 66   60/  8/  8 1021.3R   0
NORTHPORT PIER   0200   64     110/  6/  8 1021.0R
SISTER BAY       0211   61     120/  4/  7   N/A
KEWAUNEE LAKESHO 0200   64     140/  4/  6 1019.7S
SHEBOYGAN LAKESH 0200   65 68  100/  6/  7 1021.0R
ATWATER BUOY     0200   68      90/  8/ 12 1021.4R
MILWAUKEE LAKESH 0200   67      70/  9/ 10   N/A
S MID LAKE BUOY  0150   69 69   30/ 16/ 17 1019.9R   2/ 3
KENOSHA   LAKESH 0200   68      70/  9/ 11 1020.0R
$$

TC  - TEMPERATURE IN CELSIUS
VSB - VISIBILITY IN STATUTE MILES
WCI - WIND CHILL INDEX
HX  - HEAT INDEX




USA.gov is the U.S. government's official web portal to all federal, state and local government web resources and services.